Demopolis Municipal Airport, AL

2:29 AM CST on November 17, 2019 (GMT -0600)
Demopolis Municipal Airport

Weather History for KDYA - September, 2019

Change the Weather History Date:

Thursday, September 12, 2019

  Actual Average (WUND) Record (WUND)
Temperature  
Mean Temperature 84 °F -  
Max Temperature 95 °F - - (-1)
Min Temperature 73 °F - - (-1)
Cooling Degree Days 19    
Growing Degree Days 34 (Base 50)    
Moisture  
Dew Point 68 °F    
Average Humidity 60    
Maximum Humidity 100    
Minimum Humidity 33    
Precipitation  
Precipitation 0.00 in - - ()
Sea Level Pressure  
Sea Level Pressure 30.10 in    
Wind  
Wind Speed 1 mph ()    
Max Wind Speed 9 mph    
Max Gust Speed -    
Visibility 6.4 miles    
Events Fog    
Averages and records for this station are not official NWS values.
T = Trace of Precipitation, MM = Missing Value Source: Averaged Metar Reports

Daily Weather History Graph

Daily Weather History Graph

Search for Another Location

Airport or City:

Astronomy

Sep. 12, 2019 Rise Set
Actual Time 6:33 AM CDT 7:02 PM CDT
Civil Twilight 6:08 AM CDT 7:26 PM CDT
Nautical Twilight 5:39 AM CDT 7:55 PM CDT
Astronomical Twilight 5:10 AM CDT 8:25 PM CDT
Moon 6:39 PM CDT (9/12) 5:02 AM CDT (9/12)
Length of Visible Light 13h 17m
Length of Day
12h 28m
Waxing Gibbous, 98% of the Moon is Illuminated
Sep 12
Waxing Gibbous
Sep 13
Full
Sep 21
Last Quarter
Sep 28
New
Oct 5
First Quarter

Hourly Weather History & Observations

Time (CDT) Temp. Heat Index Dew Point Humidity Pressure Visibility Wind Dir Wind Speed Gust Speed Precip Events Conditions
12:15 AM 73.9 °F - 73.9 °F 100% 30.12 in 5.0 mi Calm Calm - N/A   Clear
12:55 AM - - - N/A% 30.11 in 5.0 mi Calm Calm - N/A   Clear
1:15 AM - - - N/A% 30.11 in 4.0 mi Calm Calm - N/A   Haze
1:35 AM - - - N/A% 30.11 in 4.0 mi Calm Calm - N/A   Haze
1:55 AM - - - N/A% 30.11 in 5.0 mi Calm Calm - N/A   Haze
2:35 AM - - - N/A% 30.09 in 4.0 mi Calm Calm - N/A   Haze
2:55 AM - - - N/A% 30.09 in 3.0 mi Calm Calm - N/A   Clear
3:15 AM - - - N/A% 30.10 in 4.0 mi Calm Calm - N/A   Haze
3:35 AM - - - N/A% 30.10 in 5.0 mi Calm Calm - N/A   Haze
3:55 AM - - - N/A% 30.10 in 4.0 mi Calm Calm - N/A   Haze
4:15 AM - - - N/A% 30.09 in 3.0 mi Calm Calm - N/A   Clear
4:35 AM - - - N/A% 30.10 in 3.0 mi Calm Calm - N/A   Clear
4:55 AM - - - N/A% 30.10 in 1.0 mi Calm Calm - N/A   Mostly Cloudy
5:15 AM - - - N/A% 30.10 in 2.5 mi Calm Calm - N/A   Scattered Clouds
5:35 AM - - - N/A% 30.10 in 1.2 mi Calm Calm - N/A   Overcast
5:55 AM - - - N/A% 30.11 in 1.0 mi Calm Calm - N/A   Overcast
6:15 AM - - - N/A% 30.12 in 2.5 mi Calm Calm - N/A   Scattered Clouds
6:35 AM - - - N/A% 30.12 in 1.2 mi Calm Calm - N/A   Mostly Cloudy
6:55 AM - - - N/A% 30.13 in 0.2 mi Calm Calm - N/A Fog Fog
7:15 AM - - - N/A% 30.14 in 4.0 mi Calm Calm - N/A   Haze
7:35 AM - - - N/A% 30.14 in 5.0 mi Calm Calm - N/A   Haze
7:55 AM - - - N/A% 30.15 in 5.0 mi Calm Calm - N/A   Haze
8:15 AM - - - N/A% 30.15 in 5.0 mi Calm Calm - N/A   Haze
8:35 AM - - - N/A% 30.15 in 7.0 mi Calm Calm - N/A   Clear
8:55 AM 76.3 °F - 75.4 °F 97% 30.15 in 7.0 mi Calm Calm - N/A   Clear
9:15 AM 79.2 °F - 73.4 °F 82% 30.15 in 7.0 mi Calm Calm - N/A   Clear
9:35 AM 81.5 °F 86.3 °F 72.3 °F 74% 30.16 in 7.0 mi Calm Calm - N/A   Clear
9:55 AM 84.0 °F 89.9 °F 72.5 °F 68% 30.16 in 7.0 mi Calm Calm - N/A   Clear
10:15 AM 85.3 °F 91.5 °F 72.3 °F 65% 30.16 in 7.0 mi Calm Calm - N/A   Clear
10:35 AM 87.3 °F 93.6 °F 71.6 °F 60% 30.15 in 7.0 mi NNE 3.5 mph - N/A   Clear
10:55 AM 88.9 °F 94.7 °F 70.9 °F 55% 30.15 in 7.0 mi North 3.5 mph - N/A   Clear
11:15 AM 90.5 °F 95.5 °F 69.3 °F 50% 30.15 in 7.0 mi NNE 4.6 mph - N/A   Clear
11:35 AM 90.9 °F 95.3 °F 68.7 °F 48% 30.15 in 10.0 mi North 8.1 mph - N/A   Clear
11:55 AM 92.7 °F 97.2 °F 68.5 °F 45% 30.14 in 10.0 mi North 6.9 mph - N/A   Clear
12:15 PM 93.2 °F 97.2 °F 67.5 °F 43% 30.14 in 5.0 mi North 8.1 mph - N/A   Haze
12:35 PM 93.6 °F 94.2 °F 61.9 °F 35% 30.13 in 10.0 mi North 5.8 mph - N/A   Clear
12:55 PM 94.6 °F 95.1 °F 61.7 °F 33% 30.12 in 10.0 mi NE 4.6 mph - N/A   Clear
1:35 PM 94.6 °F 97.8 °F 66.4 °F 39% 30.11 in 7.0 mi NW 6.9 mph - N/A   Clear
2:15 PM 94.3 °F 97.2 °F 65.7 °F 39% 30.09 in 5.0 mi WNW 5.8 mph - N/A   Haze
2:35 PM 94.6 °F 96.8 °F 64.8 °F 37% 30.08 in 10.0 mi North 6.9 mph - N/A   Scattered Clouds
3:15 PM 95.4 °F 97.6 °F 64.8 °F 36% 30.07 in 7.0 mi NNE 9.2 mph - N/A   Clear
3:35 PM 95.4 °F 97.1 °F 63.3 °F 35% 30.07 in 10.0 mi NNW 5.8 mph - N/A   Clear
3:55 PM 95.5 °F 97.4 °F 63.5 °F 35% 30.06 in 7.0 mi North 8.1 mph - N/A   Clear
4:15 PM 95.7 °F 96.7 °F 62.6 °F 33% 30.06 in 7.0 mi North 5.8 mph - N/A   Clear
4:35 PM 95.2 °F 96.3 °F 62.6 °F 34% 30.05 in 10.0 mi North 6.9 mph - N/A   Clear
4:55 PM 95.0 °F 96.0 °F 62.4 °F 34% 30.05 in 7.0 mi NNW 6.9 mph - N/A   Clear
5:15 PM 94.6 °F 95.9 °F 63.1 °F 35% 30.05 in 10.0 mi North 5.8 mph - N/A   Clear
5:35 PM 94.1 °F 96.4 °F 64.6 °F 38% 30.05 in 10.0 mi North 4.6 mph - N/A   Clear
5:55 PM 93.2 °F 95.3 °F 64.8 °F 39% 30.04 in 7.0 mi NNW 3.5 mph - N/A   Clear
6:15 PM 92.3 °F 95.1 °F 66.0 °F 42% 30.04 in 7.0 mi Calm Calm - N/A   Clear
6:35 PM 90.7 °F 94.1 °F 67.5 °F 46% 30.04 in 10.0 mi Calm Calm - N/A   Clear
6:55 PM 87.4 °F 93.1 °F 70.9 °F 58% 30.04 in 7.0 mi Calm Calm - N/A   Clear
7:35 PM 83.3 °F 87.9 °F 70.9 °F 66% 30.04 in 7.0 mi Calm Calm - N/A   Clear
7:55 PM 81.5 °F 85.7 °F 71.4 °F 71% 30.05 in 10.0 mi Calm Calm - N/A   Clear
8:15 PM 80.1 °F 83.3 °F 70.3 °F 72% 30.06 in 10.0 mi Calm Calm - N/A   Clear
8:35 PM 78.8 °F - 70.7 °F 76% 30.06 in 7.0 mi Calm Calm - N/A   Clear
8:55 PM 77.7 °F - 70.7 °F 79% 30.06 in 10.0 mi Calm Calm - N/A   Clear
9:15 PM 77.0 °F - 70.7 °F 81% 30.07 in 10.0 mi Calm Calm - N/A   Clear
9:35 PM 77.0 °F - 70.5 °F 80% 30.07 in 7.0 mi Calm Calm - N/A   Clear
9:55 PM 75.6 °F - 70.7 °F 85% 30.07 in 10.0 mi Calm Calm - N/A   Clear
10:15 PM 75.2 °F - 70.7 °F 86% 30.07 in 7.0 mi Calm Calm - N/A   Clear
10:35 PM 74.8 °F - 70.7 °F 87% 30.07 in 10.0 mi Calm Calm - N/A   Clear
10:55 PM 74.5 °F - 71.1 °F 89% 30.08 in 7.0 mi Calm Calm - N/A   Clear
11:15 PM 73.4 °F - 70.5 °F 91% 30.08 in 7.0 mi Calm Calm - N/A   Clear
11:35 PM 73.8 °F - 70.7 °F 90% 30.08 in 7.0 mi Calm Calm - N/A   Clear
11:55 PM 73.6 °F - 70.9 °F 91% 30.08 in 7.0 mi Calm Calm - N/A   Clear